Miscellaneous Local Product
Issued by NWS North Platte, NE

Home | Current Version | Previous Version | Graphics & Text | Print | Product List | Glossary On
Versions: 1 2 3 4 5 6 7 8 9 10 11 12 13 14 15 16 17 18 19 20 21 22 23 24 25 26 27 28 29 30 31 32 33 34 35 36 37 38 39 40 41 42 43 44 45 46 47 48 49 50
311
AXUS43 KLBF 192010
MISLBF


WESTERN AND NORTH CENTRAL NEBRASKA HOURLY WEATHER ROUNDUP
NATIONAL WEATHER SERVICE NORTH PLATTE NE
300 PM CDT SAT MAY 19 2018

NOTE: "FAIR" INDICATES FEW OR NO CLOUDS BELOW 12,000 FEET WITH NO
SIGNIFICANT WEATHER AND/OR OBSTRUCTIONS TO VISIBILITY.

NOTE: STATIONS NOT REPORTING VARIABLES SUCH AS SKY/WEATHER OR
PRESSURE ARE PROVIDED BY RAWS AND APRS NETWORKS AND ARE NOT UNDER
NATIONAL WEATHER SERVICE QUALITY CONTROL.

...OBSERVATIONS IN AND NEAR THE EASTERN PANHANDLE OF NEBRASKA...

CITY           SKY/WX    TMP DP  RH WIND       PRES   REMARKS
PINE RIDGE     LGT RAIN  45  42  89 N9        30.19F
GORDON         RAIN      43  41  92 N23G29    30.16R
CHADRON        LGT RAIN  44  42  93 N13       30.21S FOG
ALLIANCE       LGT RAIN  43  42  97 N23G31    30.12R
SIDNEY         LGT RAIN  45  43  93 N22G31    30.12R FOG
CRESCENT LAKE    N/A     44  42  92 N22G30      N/A
$$

...OBSERVATIONS IN NORTHERN NEBRASKA AND FAR SOUTHERN SOUTH DAKOTA...

CITY           SKY/WX    TMP DP  RH WIND       PRES   REMARKS
WINNER         FAIR      62  43  49 NE16      30.09F
VALENTINE      LGT RAIN  50  46  86 N10G21    30.12S
AINSWORTH      RAIN      47  47 100 N16G23    30.09S
O`NEILL        LGT RAIN  51  50  97 N13G20    30.05R
THEDFORD       RAIN      47  46  94 N16       30.09F
BROKEN BOW     LGT RAIN  50  47  89 N16G28    30.03S
ORD            LGT RAIN  49  48  97 N14       30.02S FOG
ALBION         HVY RAIN  51  49  94 N7        30.03S
VALENTINE NWR    N/A     45  44  95 N16G26      N/A
HALSEY           N/A     47  47 100 N8G20       N/A
BUTTE            N/A     51  48  89 N9G17       N/A
CHAMBERS         N/A     49  48  96 N3G12       N/A
EWING            N/A     49  47  94 N7G15       N/A
$$

...OBSERVATIONS IN SOUTHWEST NEBRASKA AND FAR NORTHEAST COLORADO...

CITY           SKY/WX    TMP DP  RH WIND       PRES   REMARKS
WRAY           DRIZZLE   48  48 100 N16       30.06
HOLYOKE        RAIN      48  45  87 N17       30.07R
IMPERIAL       LGT RAIN  49  49 100 N17       30.02R FOG
OGALLALA       LGT RAIN  49  48  95 N20G25    30.06R
NORTH PLATTE   CLOUDY    50  47  89 NE26G37   30.02S
MCCOOK         CLOUDY    51  50  96 NE18      29.98R FOG
LEXINGTON      CLOUDY    50  49  97 NE15      30.02S
STAPLETON        N/A     47  46  95 NE8G17      N/A
GOTHENBURG       N/A     49  44  82 N12         N/A
CALLAWAY         N/A     48  48  99 NE15        N/A
$$

...OBSERVATIONS IN CENTRAL LINCOLN COUNTY AREA...

CITY           SKY/WX    TMP DP  RH WIND       PRES   REMARKS
N.P. AIRPORT   CLOUDY    50  47  89 NE26G37   30.02S
N.P. DOWNTOWN    N/A     49  46  91 NE10G17     N/A
N.P. SOUTHEAST   N/A     49  46  90 NE7G20      N/A
$$

...OBSERVATIONS ACROSS THE ROCKIES AND WESTERN HIGH PLAINS...

CITY           SKY/WX    TMP DP  RH WIND       PRES   REMARKS
RAPID CITY     CLOUDY    51  38  60 N15       30.23F
SCOTTSBLUFF    RAIN      44  32  62 N18       30.16R
CHEYENNE       LGT RAIN  40  38  93 N13       30.19S WCI  32
DENVER         LGT RAIN  45  42  89 N14       30.16S FOG
BERTHOUD PASS  HAZE      28  18  64 SE12G18   30.30R VSB<1/4 WCI  18
COPPER MTN     CLOUDY    41  25  52 W15       30.27S
MONARCH PASS   PTSUNNY   45  19  36 MISG      30.36S
ASPEN          PTSUNNY   61  22  22 N8        30.05R
STEAMBOAT      FAIR      61  37  41 W7        30.05R
LARAMIE        CLOUDY    43  36  76 E8        30.19R
CASPER         CLOUDY    46  42  86 NE13      30.21S
$$

...OBSERVATIONS ACROSS THE NORTHERN PLAINS...

CITY           SKY/WX    TMP DP  RH WIND       PRES   REMARKS
BISMARCK       SUNNY     64  30  27 NE16G28   30.23F
FARGO          FAIR      65  33  30 NE24G36   30.13F
PIERRE         PTSUNNY   63  37  38 N23G33    30.12S
SIOUX FALLS    CLOUDY    56  48  74 N10       30.02R
$$

...OBSERVATIONS ACROSS THE CENTRAL AND SOUTHERN PLAINS...

CITY           SKY/WX    TMP DP  RH WIND       PRES   REMARKS
OMAHA          CLOUDY    63  54  72 N13       29.94F
GRAND ISLAND   CLOUDY    52  49  89 NE15      30.01F
KANSAS CITY    MOSUNNY   79  62  56 CALM      29.87S
WICHITA        PTSUNNY   77  68  73 SW6       29.87S
DODGE CITY     SUNNY     75  52  44 VRB3      29.92F
OKLAHOMA CITY  MOSUNNY   88  58  36 SW20G25   29.82F
DALLAS         PTSUNNY   92  66  42 S18G25    29.85F HX  94
AMARILLO       MOSUNNY   79  54  41 NE21G38   29.93F
$$




USA.gov is the U.S. government's official web portal to all federal, state and local government web resources and services.